Weather History for KSJN - May, 2013

Change the Weather History Date:

Wednesday, May 15, 2013

  Actual Average (KSOW) Record (KSOW)
Temperature  
Mean Temperature 58 °F -  
Max Temperature 78 °F 72 °F 84 °F (2000)
Min Temperature 39 °F 52 °F 24 °F (1967)
Degree Days  
Heating Degree Days 6    
Growing Degree Days 8 (Base 50)    
Moisture  
Dew Point 24 °F    
Average Humidity 19    
Maximum Humidity 43    
Minimum Humidity 4    
Precipitation  
Precipitation 0.00 in - - ()
Sea Level Pressure  
Sea Level Pressure 29.83 in    
Wind  
Wind Speed 11 mph (WSW)    
Max Wind Speed 23 mph    
Max Gust Speed 36 mph    
Visibility 10 miles    
Events      
Averages and records for this station are not official NWS values.
T = Trace of Precipitation, MM = Missing Value Source: NWS Daily Summary

Daily Weather History Graph

Daily Weather History Graph

Search for Another Location

Airport or City:

Trip Planner

Search our weather history database for the weather conditions in past years. The results will help you decide how hot, cold, wet, or windy it might be!

Date:

Astronomy

May. 15, 2013 Rise Set
Actual Time 5:14 AM MST 7:13 PM MST
Civil Twilight 4:46 AM MST 7:41 PM MST
Nautical Twilight 4:13 AM MST 8:15 PM MST
Astronomical Twilight 3:36 AM MST 8:51 PM MST
Moon 9:51 AM MST (5/15) 11:40 PM MST (5/15)
Length of Visible Light 14h 54m
Length of Day
13h 58m
Waxing Crescent, 28% of the Moon is Illuminated
May 15
Waxing Crescent
May 17
First Quarter
May 24
Full
May 31
Last Quarter
Jun 8
New

Hourly Weather History & Observations

Time (MST) Temp. Dew Point Humidity Pressure Visibility Wind Dir Wind Speed Gust Speed Precip Events Conditions
12:54 AM 64.9 °F 28.9 °F 26% 29.82 in 10.0 mi SSW 5.8 mph - N/A   Partly Cloudy
1:54 AM 66.0 °F 28.0 °F 24% 29.81 in 10.0 mi SW 8.1 mph - N/A   Mostly Cloudy
2:54 AM 64.0 °F 28.0 °F 26% 29.81 in 10.0 mi SW 5.8 mph - N/A   Partly Cloudy
3:54 AM 61.0 °F 28.0 °F 29% 29.83 in 10.0 mi WSW 5.8 mph - N/A   Clear
4:54 AM 60.1 °F 28.9 °F 31% 29.85 in 10.0 mi WSW 5.8 mph - N/A   Clear
5:54 AM 60.1 °F 28.9 °F 31% 29.88 in 10.0 mi SW 6.9 mph - N/A   Clear
6:54 AM 66.0 °F 30.0 °F 26% 29.88 in 10.0 mi SW 11.5 mph - N/A   Clear
7:54 AM 71.1 °F 28.9 °F 21% 29.88 in 10.0 mi West 16.1 mph - N/A   Clear
8:54 AM 73.9 °F 27.0 °F 18% 29.87 in 10.0 mi WNW 13.8 mph 25.3 mph N/A   Clear
9:54 AM 78.1 °F 27.0 °F 15% 29.85 in 10.0 mi WNW 13.8 mph 20.7 mph N/A   Clear
10:54 AM 79.0 °F 28.0 °F 15% 29.85 in 10.0 mi West 13.8 mph 18.4 mph N/A   Clear
11:54 AM 82.9 °F 26.1 °F 13% 29.79 in 10.0 mi West 20.7 mph 29.9 mph N/A   Partly Cloudy
12:54 PM 84.0 °F 26.1 °F 12% 29.77 in 10.0 mi SW 20.7 mph 29.9 mph N/A   Clear
1:54 PM 84.0 °F 25.0 °F 12% 29.75 in 10.0 mi WSW 23.0 mph 31.1 mph N/A   Partly Cloudy
2:54 PM 84.0 °F 21.9 °F 10% 29.74 in 10.0 mi West 16.1 mph 29.9 mph N/A   Clear
3:54 PM 82.0 °F 19.9 °F 10% 29.74 in 10.0 mi WSW 18.4 mph 28.8 mph N/A   Clear
4:54 PM 81.0 °F 19.9 °F 10% 29.75 in 10.0 mi WSW 21.9 mph 35.7 mph N/A   Clear
5:54 PM 78.1 °F 21.9 °F 12% 29.76 in 10.0 mi WSW 20.7 mph 32.2 mph N/A   Clear
6:54 PM 73.9 °F 21.9 °F 14% 29.77 in 10.0 mi WSW 17.3 mph 26.5 mph N/A   Clear
7:54 PM 70.0 °F 21.0 °F 16% 29.79 in 10.0 mi WSW 17.3 mph - N/A   Clear
8:54 PM 66.9 °F 21.9 °F 18% 29.82 in 10.0 mi West 11.5 mph - N/A   Clear
9:54 PM 64.9 °F 23.0 °F 20% 29.82 in 10.0 mi WSW 6.9 mph - N/A   Clear
10:54 PM 61.0 °F 24.1 °F 24% 29.83 in 10.0 mi SW 8.1 mph - N/A   Clear
11:54 PM 57.9 °F 24.1 °F 27% 29.83 in 10.0 mi South 6.9 mph - N/A   Clear